Simultaneous Nadir Overpasses (SNOs) Predictions

Prediction of SNOs between GOES-15 and NPP Satellite Orbit:

Table of predicted SNOs for the next 14.0 days since TLE Epoch: 7/24/2021
Index Date Time (GOES-15) GOES-15 Lat,Lon NPP Lat,Lon Distance(km) Time Diff (sec)
1 07/25/2021 21:56:20 0.12,-127.63 -0.02,-128.17 61.69 80
2 07/26/2021 21:40:16 0.11,-127.66 1.02,-123.64 458.65 80
3 07/28/2021 09:59:25 -0.13,-127.83 0.13,-128.92 124.27 80
4 07/29/2021 09:43:22 -0.12,-127.87 -0.92,-124.40 395.94 80
5 07/30/2021 22:02:39 0.14,-127.80 -0.28,-129.70 216.35 80
6 07/31/2021 21:46:35 0.13,-127.83 0.71,-125.17 303.57 80
7 08/02/2021 10:05:45 -0.15,-128.00 0.38,-130.46 280.21 80
8 08/03/2021 09:49:41 -0.14,-128.03 -0.60,-125.92 239.29 80
9 08/04/2021 22:08:58 0.17,-127.95 -0.58,-131.23 374.19 80
10 08/05/2021 21:52:54 0.16,-127.98 0.46,-126.71 144.86 80
